Content
SEND FEEDBACK

Daily
Averages
Monthly
Summary
Venezuela

POZUELOS, VENEZUELA


Home > South America > Venezuela
Elevation: 26 feet     Latitude: 10 06N     Longitude: 064 41W

WEATHER
 
SELECT A DAY
Number of Records: 101,603;   Date Range: 7/1/96 - 9/29/14
 
SHARE

PRINT THIS DATA

[ ← Previous Day ]
WEATHER ALMANAC - JANUARY 31, 2013
[ Next Day → ]
[ °C ]   °F
Weather ElementAverageHighLow
Temperature82.6 °F93.2 °F (2:30 pm)73.4 °F (3:30 am)
Dewpoint69.8 °F73.4 °F (11:30 pm)68 °F (1:30 am)
Humidity66.7 %83 % (2:30 am)44 % (2:30 pm)
Barometer29.92 in30.01 in (8:30 am)29.83 in (5:30 pm)
Wind Speed5.4 mph20.7 mph (6:30 pm)
Weather ElementAverage
Visibility6.2 mi
Wind DirectionESE (121.7 °)

Weather ElementTotal
Precipitation---
Cooling Degree Days18.3 (Base 65)
Growing Degree Days33.3 (Base 50)
Averaged from 23 records on January 31, 2013
WEATHER CONDITIONS BREAKOUT
WIND DIRECTION BREAKOUT
WEATHER BY HOUR - JANUARY 31, 2013
[ °C ]   °F
Local TimeTemperatureDewpointHumidityBarometerVisibilityWind DirectionWind SpeedGust SpeedPrecipitationEventsConditions
1:30 AM77.0 °F68.0 °F74 %29.89 in6.2 miCalmPartly Cloudy
2:30 AM75.2 °F69.8 °F83 %29.89 in6.2 miCalmPartly Cloudy
3:30 AM73.4 °F68.0 °F83 %29.89 in6.2 miCalmPartly Cloudy
4:30 AM73.4 °F68.0 °F83 %29.89 in6.2 miCalmPartly Cloudy
5:30 AM73.4 °F68.0 °F83 %29.89 in6.2 miCalmPartly Cloudy
6:30 AM75.2 °F69.8 °F83 %29.95 in6.2 miCalmPartly Cloudy
7:30 AM77.0 °F71.6 °F83 %29.95 in6.2 miCalmPartly Cloudy
8:30 AM80.6 °F69.8 °F70 %30.01 in6.2 miCalmPartly Cloudy
9:30 AM84.2 °F69.8 °F62 %30.01 inNorthPartly Cloudy
10:30 AM89.6 °F68.0 °F49 %30.01 inNorthPartly Cloudy
11:30 AM89.6 °F69.8 °F52 %30.01 in6.2 miNW (320°)4.6 mphScattered Clouds
12:30 PM91.4 °F68.0 °F46 %29.98 in6.2 miNW (320°)6.9 mphScattered Clouds
1:30 PM91.4 °F68.0 °F46 %29.98 in6.2 miNorth (360°)17.3 mphScattered Clouds
2:30 PM93.2 °F68.0 °F44 %29.92 in6.2 miNorth (360°)11.5 mphScattered Clouds
3:30 PM91.4 °F71.6 °F52 %29.89 in6.2 miNorth (360°)17.3 mphScattered Clouds
4:30 PM87.8 °F71.6 °F58 %29.86 in6.2 miNorth (360°)17.3 mphScattered Clouds
5:30 PM86.0 °F71.6 °F62 %29.83 in6.2 miNorth (360°)17.3 mphMostly Cloudy
6:30 PM84.2 °F71.6 °F66 %29.83 in6.2 miNorth (360°)20.7 mphMostly Cloudy
7:30 PM82.4 °F69.8 °F66 %29.86 in6.2 miCalmMostly Cloudy
8:30 PM82.4 °F69.8 °F66 %29.89 in6.2 miCalmScattered Clouds
9:30 PM82.4 °F69.8 °F66 %29.92 in6.2 miCalmScattered Clouds
10:30 PM80.6 °F71.6 °F74 %29.92 in6.2 miCalmPartly Cloudy
11:30 PM78.8 °F73.4 °F83 %29.95 in6.2 miCalmPartly Cloudy
Hourly data recorded from SVBC, located miles away from Pozuelos, Venezuela







STORIES FROM OUR PARTNERS